• In Hungary
  • List of Countries
  • For 7 days
  • Water Temperature
  • Satellite Maps
  • Weather Map
  • News
  • Weather Widgets
  • user-avatar
    Login

    Hourly Weather Canberra

    Today, 20 November, Monday

    Time Temperature Precipitation Wind Pressure Humidity
    00:00 +14°C° 0 mm 2 mps 715 mmHg 93%
    01:00 +14°C° 0 mm 1 mps 715 mmHg 92%
    02:00 +13°C° 0 mm 1 mps 715 mmHg 93%
    03:00 +12°C° 0 mm 1 mps 715 mmHg 94%
    04:00 +11°C° 0 mm 1 mps 714 mmHg 93%
    05:00 +13°C° 0 mm 1 mps 715 mmHg 87%
    06:00 +14°C° 0 mm 2 mps 715 mmHg 81%
    07:00 +15°C° 0 mm 2 mps 716 mmHg 74%
    08:00 +17°C° 0 mm 2 mps 716 mmHg 66%
    09:00 +19°C° 0 mm 3 mps 716 mmHg 57%
    10:00 +22°C° 0 mm 3 mps 716 mmHg 48%
    11:00 +24°C° 0 mm 3 mps 716 mmHg 45%
    12:00 +25°C° 0 mm 3 mps 716 mmHg 42%
    13:00 +26°C° 0 mm 3 mps 715 mmHg 39%
    14:00 +26°C° 0 mm 3 mps 715 mmHg 41%
    15:00 +26°C° 0 mm 3 mps 715 mmHg 43%
    16:00 +25°C° 0 mm 3 mps 714 mmHg 45%
    17:00 +22°C° 0 mm 3 mps 715 mmHg 56%
    18:00 +20°C° 0 mm 3 mps 715 mmHg 67%
    19:00 +17°C° 0 mm 3 mps 715 mmHg 78%
    20:00 +16°C° 0 mm 2 mps 715 mmHg 84%
    21:00 +15°C° 0 mm 2 mps 715 mmHg 90%
    22:00 +14°C° 0 mm 2 mps 715 mmHg 97%
    23:00 +13°C° 0 mm 2 mps 715 mmHg 96%

    Tomorrow, 21 November, Tuesday

    Time Temperature Precipitation Wind Pressure Humidity
    00:00 +13°C° 0 mm 1 mps 715 mmHg 96%
    01:00 +12°C° 0 mm 1 mps 715 mmHg 96%
    02:00 +12°C° 0 mm 1 mps 714 mmHg 96%
    03:00 +12°C° 0 mm 1 mps 714 mmHg 96%
    04:00 +11°C° 0 mm 1 mps 714 mmHg 95%
    05:00 +13°C° 0 mm 1 mps 714 mmHg 89%
    06:00 +14°C° 0 mm 1 mps 715 mmHg 82%
    07:00 +15°C° 0 mm 2 mps 715 mmHg 76%
    08:00 +18°C° 0 mm 2 mps 715 mmHg 64%
    09:00 +20°C° 0 mm 2 mps 715 mmHg 52%
    10:00 +22°C° 0 mm 3 mps 715 mmHg 40%
    11:00 +24°C° 0 mm 3 mps 715 mmHg 37%
    12:00 +25°C° 0 mm 3 mps 715 mmHg 34%
    13:00 +26°C° 0 mm 3 mps 714 mmHg 32%
    14:00 +26°C° 0 mm 3 mps 714 mmHg 33%
    15:00 +26°C° 0 mm 3 mps 713 mmHg 35%
    16:00 +25°C° 0 mm 4 mps 713 mmHg 37%
    17:00 +22°C° 0 mm 3 mps 713 mmHg 47%
    18:00 +19°C° 0 mm 3 mps 713 mmHg 57%
    19:00 +17°C° 0 mm 3 mps 713 mmHg 67%
    20:00 +15°C° 0 mm 2 mps 713 mmHg 75%
    21:00 +13°C° 0 mm 2 mps 713 mmHg 84%
    22:00 +12°C° 0 mm 2 mps 713 mmHg 92%
    23:00 +10°C° 0 mm 2 mps 713 mmHg 94%

    Day after tomorrow, 22 November, Wednesday

    Time Temperature Precipitation Wind Pressure Humidity
    00:00 +11°C° 0 mm 1 mps 712 mmHg 95%
    01:00 +10°C° 0 mm 1 mps 712 mmHg 96%
    02:00 +10°C° 0 mm 1 mps 712 mmHg 96%
    03:00 +10°C° 0 mm 1 mps 712 mmHg 96%
    04:00 +9°C° 0 mm 1 mps 712 mmHg 96%
    05:00 +11°C° 0 mm 1 mps 712 mmHg 89%
    06:00 +13°C° 0 mm 1 mps 713 mmHg 83%
    07:00 +15°C° 0 mm 1 mps 713 mmHg 76%
    08:00 +18°C° 0 mm 1 mps 713 mmHg 63%
    09:00 +21°C° 0 mm 1 mps 713 mmHg 51%
    10:00 +23°C° 0 mm 2 mps 713 mmHg 39%
    11:00 +24°C° 0 mm 2 mps 713 mmHg 36%
    12:00 +26°C° 0 mm 2 mps 712 mmHg 32%
    13:00 +27°C° 0 mm 2 mps 711 mmHg 29%
    14:00 +26°C° 0 mm 2 mps 711 mmHg 31%
    15:00 +26°C° 0 mm 2 mps 711 mmHg 34%
    16:00 +26°C° 0 mm 2 mps 710 mmHg 36%
    17:00 +22°C° 0.1 mm 3 mps 710 mmHg 50%
    18:00 +19°C° 0.1 mm 3 mps 710 mmHg 64%
    19:00 +17°C° 0.1 mm 3 mps 710 mmHg 78%
    20:00 +16°C° 0 mm 3 mps 710 mmHg 83%
    21:00 +15°C° 0 mm 2 mps 710 mmHg 89%
    22:00 +13°C° 0 mm 2 mps 710 mmHg 94%
    23:00 +13°C° 0 mm 1 mps 710 mmHg 95%

    23 November, Thursday

    Time Temperature Precipitation Wind Pressure Humidity
    00:00 +12°C° 0 mm 1 mps 710 mmHg 97%
    01:00 +12°C° 0 mm 1 mps 709 mmHg 98%
    02:00 +12°C° 0 mm 1 mps 709 mmHg 98%
    03:00 +11°C° 0 mm 1 mps 709 mmHg 98%
    04:00 +11°C° 0 mm 1 mps 709 mmHg 98%
    05:00 +12°C° 0 mm 1 mps 709 mmHg 92%
    06:00 +14°C° 0 mm 1 mps 709 mmHg 86%
    07:00 +15°C° 0 mm 1 mps 710 mmHg 80%
    08:00 +19°C° 0 mm 1 mps 710 mmHg 67%
    09:00 +22°C° 0 mm 1 mps 710 mmHg 55%
    10:00 +24°C° 0 mm 2 mps 710 mmHg 42%
    11:00 +25°C° 0.1 mm 2 mps 710 mmHg 41%
    12:00 +26°C° 0.1 mm 2 mps 710 mmHg 40%
    13:00 +26°C° 0.1 mm 2 mps 709 mmHg 38%
    14:00 +25°C° 0.3 mm 2 mps 709 mmHg 44%
    15:00 +24°C° 0.3 mm 2 mps 708 mmHg 50%
    16:00 +23°C° 0.3 mm 2 mps 708 mmHg 56%
    17:00 +21°C° 0.2 mm 2 mps 708 mmHg 63%
    18:00 +20°C° 0.2 mm 1 mps 708 mmHg 70%
    19:00 +18°C° 0.2 mm 1 mps 708 mmHg 77%
    20:00 +18°C° 0.5 mm 1 mps 708 mmHg 80%
    21:00 +16°C° 0.5 mm 1 mps 709 mmHg 84%
    22:00 +15°C° 0.5 mm 1 mps 709 mmHg 87%
    23:00 +15°C° 0.1 mm 1 mps 708 mmHg 88%

    24 November, Friday

    Time Temperature Precipitation Wind Pressure Humidity
    00:00 +15°C° 0.1 mm 1 mps 708 mmHg 88%
    01:00 +14°C° 0.1 mm 1 mps 708 mmHg 89%
    02:00 +14°C° 0 mm 1 mps 708 mmHg 89%
    03:00 +14°C° 0 mm 1 mps 708 mmHg 90%
    04:00 +13°C° 0 mm 1 mps 708 mmHg 90%
    05:00 +15°C° 0 mm 1 mps 708 mmHg 83%
    06:00 +17°C° 0 mm 2 mps 709 mmHg 76%
    07:00 +19°C° 0 mm 2 mps 709 mmHg 68%
    08:00 +23°C° 0 mm 2 mps 709 mmHg 57%
    09:00 +25°C° 0 mm 3 mps 710 mmHg 45%
    10:00 +28°C° 0 mm 4 mps 710 mmHg 34%
    11:00 +29°C° 0 mm 4 mps 709 mmHg 32%
    12:00 +29°C° 0 mm 4 mps 709 mmHg 30%
    13:00 +30°C° 0 mm 4 mps 709 mmHg 27%
    14:00 +29°C° 0 mm 3 mps 709 mmHg 30%
    15:00 +29°C° 0 mm 3 mps 709 mmHg 32%
    16:00 +28°C° 0 mm 2 mps 709 mmHg 34%
    17:00 +26°C° 0 mm 2 mps 709 mmHg 42%
    18:00 +24°C° 0 mm 2 mps 709 mmHg 50%
    19:00 +21°C° 0 mm 2 mps 709 mmHg 58%
    20:00 +20°C° 0 mm 2 mps 709 mmHg 64%
    21:00 +18°C° 0 mm 2 mps 710 mmHg 70%
    22:00 +17°C° 0 mm 2 mps 710 mmHg 77%
    23:00 +16°C° 0 mm 2 mps 710 mmHg 75%

    25 November, Saturday

    Time Temperature Precipitation Wind Pressure Humidity
    00:00 +16°C° 0 mm 2 mps 710 mmHg 74%
    01:00 +16°C° 0 mm 2 mps 709 mmHg 72%
    02:00 +15°C° 0 mm 1 mps 709 mmHg 71%
    03:00 +15°C° 0 mm 1 mps 709 mmHg 70%
    04:00 +15°C° 0 mm 1 mps 709 mmHg 69%
    05:00 +18°C° 0 mm 1 mps 710 mmHg 62%
    06:00 +20°C° 0 mm 1 mps 711 mmHg 55%
    07:00 +23°C° 0 mm 1 mps 711 mmHg 48%
    08:00 +25°C° 0 mm 1 mps 711 mmHg 42%
    09:00 +28°C° 0 mm 1 mps 712 mmHg 35%
    10:00 +30°C° 0 mm 1 mps 712 mmHg 28%
    11:00 +30°C° 0 mm 1 mps 711 mmHg 27%
    12:00 +31°C° 0 mm 1 mps 711 mmHg 26%
    13:00 +31°C° 0 mm 1 mps 711 mmHg 24%
    14:00 +30°C° 0 mm 2 mps 710 mmHg 28%
    15:00 +29°C° 0 mm 2 mps 710 mmHg 32%
    16:00 +28°C° 0 mm 2 mps 710 mmHg 35%
    17:00 +26°C° 0 mm 2 mps 710 mmHg 40%
    18:00 +24°C° 0 mm 2 mps 710 mmHg 46%
    19:00 +23°C° 0 mm 2 mps 711 mmHg 51%
    20:00 +20°C° 0 mm 2 mps 711 mmHg 58%
    21:00 +19°C° 0 mm 2 mps 711 mmHg 66%
    22:00 +18°C° 0 mm 1 mps 711 mmHg 74%
    23:00 +18°C° 0 mm 1 mps 711 mmHg 76%
    Show more